Wind_Speed
13 13 13 13 13 12 12 12 11 11 11 10 10 11 11 10 10 10 10 10 10 10 10 10 9 9 9 10 10 10 10 9 9 9 9 9 10 10 10 10 10 10 10
15 15 15 15 15 14 14 14 13 13 13 13 13 13 13 13 13 12 12 12 12 12 12 12 11 11 11 11 12 12 11 11 11 11 11 11 11 11 11 12 12 12 12
17 16 16 16 17 16 16 16 16 15 15 15 15 15 15 15 15 15 15 15 14 14 14 14 14 13 13 13 13 13 13 13 13 13 13 13 13 13 13 13 13 13 13
19 19 18 18 19 18 18 18 17 17 17 17 17 17 17 17 17 17 17 16 16 16 15 15 15 15 15 15 15 15 15 15 15 15 14 15 15 15 15 15 15 15 15
21 21 21 20 20 20 20 20 20 19 19 19 19 19 19 19 19 19 19 19 18 18 18 17 17 18 17 17 17 17 17 17 17 17 17 17 17 17 17 17 17 17 17
22 22 22 22 22 21 21 21 21 21 21 21 21 21 21 21 21 21 21 21 21 20 20 19 19 20 19 19 19 19 19 19 19 19 19 19 18 18 18 18 19 18 19
23 23 24 23 24 24 24 23 23 23 23 23 23 23 23 23 23 23 23 22 22 23 22 22 21 22 22 22 22 22 21 21 21 21 21 21 20 20 20 20 21 21 20
25 25 25 26 26 26 26 26 25 25 25 25 25 25 25 25 25 25 25 25 24 24 24 24 24 24 24 24 24 24 24 23 23 23 23 23 22 22 22 23 22 22 22
27 27 28 28 28 28 28 28 28 28 28 27 27 27 27 27 27 27 27 27 27 26 26 26 25 25 25 25 25 25 26 25 25 24 24 24 24 24 24 24 23 23 23
29 29 30 30 30 30 30 30 30 29 30 30 29 30 29 29 29 29 29 28 29 29 29 29 28 27 28 27 27 27 27 27 27 26 26 26 26 26 26 26 25 24 24
32 32 32 32 32 32 32 32 32 31 31 31 32 32 32 32 32 32 32 31 31 31 32 32 31 31 30 30 30 30 29 29 29 29 29 28 27 27 27 27 27 27 26
34 34 34 34 34 34 34 34 34 34 34 34 34 33 34 34 34 34 34 34 34 34 34 34 33 33 33 32 32 32 32 31 31 31 30 29 29 28 28 29 29 28 28
36 36 36 36 36 36 36 36 36 36 36 36 36 36 36 36 36 36 36 37 36 36 36 35 35 35 35 35 34 34 34 33 32 32 32 31 30 29 29 29 30 30 29
37 38 38 38 38 37 37 37 37 38 38 38 38 38 38 38 38 37 38 38 38 38 38 38 37 37 37 37 36 36 36 35 35 34 33 33 32 31 31 31 31 31 31
38 39 39 39 38 39 39 38 38 38 39 39 39 39 40 40 40 39 40 40 40 39 39 39 39 39 39 39 39 38 38 37 37 37 36 35 35 34 33 33 33 33 33
39 40 40 40 40 40 40 40 40 39 39 40 40 40 40 40 41 41 42 42 42 42 42 41 41 40 40 40 40 40 40 39 39 39 39 38 38 37 37 36 35 35 35
39 40 40 41 41 41 41 41 41 41 40 40 40 40 40 41 41 41 41 42 43 42 42 42 42 42 42 42 42 42 42 42 41 41 40 40 40 39 39 38 38 38 37
39 40 40 41 41 41 41 41 41 41 41 41 41 41 41 42 42 43 43 43 44 44 43 43 43 43 43 43 44 44 44 43 43 43 42 42 42 41 40 39 39 40 39
40 40 40 40 41 41 41 41 41 41 41 42 41 41 41 43 43 43 43 44 45 45 45 45 45 45 46 46 46 46 46 45 45 45 44 43 43 43 42 41 41 41 40
39 39 39 39 40 40 41 41 42 42 42 43 43 43 43 43 44 45 45 45 46 46 46 47 47 47 47 47 47 47 47 47 46 46 46 45 44 44 43 43 42 42 42
38 38 38 39 39 40 40 41 42 42 43 43 44 44 45 45 45 46 47 46 46 47 47 48 48 48 47 47 47 46 46 46 46 46 46 46 45 44 44 44 43 43 43
38 38 38 39 40 40 41 41 42 42 43 43 43 44 44 45 44 45 45 47 47 46 47 47 48 47 47 47 46 46 45 45 45 45 45 45 45 44 45 45 45 45 44
37 37 38 39 40 40 41 41 42 43 43 43 43 43 44 44 44 44 44 45 46 46 46 46 46 46 45 45 46 45 46 46 45 45 45 45 45 45 46 45 45 45 45
37 37 37 38 40 41 41 42 42 42 42 43 43 43 43 43 43 44 44 44 45 46 45 44 44 45 45 45 45 45 45 45 46 45 44 45 45 46 46 46 46 46 46
37 38 39 39 40 41 41 41 41 41 41 42 42 43 43 43 43 42 42 43 44 44 43 43 44 44 46 47 46 45 45 45 45 45 43 44 45 46 46 46 46 46 45
36 37 38 38 39 39 40 40 41 40 40 41 42 43 43 43 43 43 42 42 42 42 42 43 44 44 45 46 47 47 46 45 45 45 45 45 46 47 47 48 48 48 47
Wind_Direction
261 262 263 265 267 269 271 270 267 264 261 260 257 254 251 251 250 250 253 259 259 260 261 258 258 259 260 259 258 258 260 261 263 264 268 270 268 268 271 273 271 272 272
260 261 262 264 265 266 267 268 267 266 264 261 259 256 253 253 254 255 255 259 261 262 263 262 261 261 261 259 259 259 260 263 265 266 266 270 270 271 272 274 272 271 273
260 262 263 263 264 265 265 265 266 266 264 262 259 257 255 254 254 255 256 258 261 262 263 263 263 263 262 260 261 262 262 265 267 268 269 270 271 273 274 274 273 272 273
261 261 263 263 263 264 265 265 265 265 265 263 261 260 259 257 257 256 256 257 260 262 262 261 262 263 263 263 262 262 264 265 267 270 270 271 272 272 273 274 274 273 274
263 262 262 262 262 263 265 266 265 265 265 264 263 261 262 260 259 258 257 258 259 259 260 261 260 261 261 262 263 263 264 265 267 269 270 271 273 271 271 272 273 275 275
264 263 263 263 262 263 263 264 265 265 265 265 264 262 262 261 260 260 258 259 259 259 260 261 263 261 260 261 264 265 265 268 268 269 270 272 273 272 271 272 273 273 275
263 264 264 264 264 264 264 265 265 265 265 265 264 263 262 262 261 260 258 259 259 259 259 259 261 263 263 262 264 266 267 268 269 268 270 271 272 271 271 272 273 272 273
263 263 265 264 265 265 265 265 265 265 265 265 265 265 264 263 263 262 261 261 262 261 261 261 260 262 263 263 264 266 267 268 270 269 269 269 271 271 271 272 272 272 272
264 263 264 264 264 264 264 264 264 264 264 265 265 265 264 263 263 262 262 262 262 262 262 262 263 263 263 264 265 266 267 268 270 270 270 270 269 270 269 270 271 271 272
264 264 264 264 264 264 264 264 264 263 263 263 264 264 264 263 262 262 262 262 262 262 262 262 263 263 263 263 265 267 267 269 269 269 270 270 270 269 269 269 270 271 271
264 264 264 264 263 263 263 263 264 263 263 264 264 264 264 263 262 262 262 262 261 262 262 262 263 264 264 264 265 266 267 268 268 269 269 269 269 269 268 269 269 269 270
263 264 264 263 263 263 263 263 264 264 264 264 264 264 264 263 262 262 262 262 261 261 261 262 262 263 264 265 265 265 266 267 267 268 268 267 267 267 268 269 268 268 268
264 264 264 263 263 263 263 263 263 264 264 264 265 264 263 263 263 262 262 261 261 261 261 261 262 263 264 265 265 265 266 266 266 266 267 267 267 267 267 268 268 268 267
265 265 264 264 264 263 262 262 263 263 263 264 263 262 262 263 262 261 261 261 261 261 261 261 262 263 263 264 265 265 265 265 265 265 265 266 267 267 267 268 268 268 268
266 265 264 264 264 263 263 263 263 264 263 263 263 262 262 261 261 261 260 260 260 260 260 261 261 262 263 264 264 264 264 264 264 264 264 265 266 266 267 266 267 266 267
267 266 265 265 264 263 263 263 263 264 263 263 263 263 262 261 261 261 260 260 260 260 260 261 262 263 263 263 263 263 263 264 264 263 264 264 265 265 265 265 265 265 266
266 266 265 265 265 264 263 263 263 262 263 264 263 263 262 263 262 261 261 261 261 260 260 260 261 262 262 263 263 263 263 264 264 264 264 264 264 264 264 264 265 265 266
267 266 265 265 265 264 263 263 263 263 263 263 263 263 263 263 263 263 262 262 262 261 261 261 261 262 263 262 263 263 263 263 263 263 263 263 263 263 263 262 263 263 263
267 266 265 264 264 265 264 263 263 263 263 263 263 263 264 263 263 263 263 263 263 263 263 263 263 263 263 263 263 263 263 262 262 262 262 263 263 263 262 261 261 261 261
268 266 265 264 265 265 265 265 264 263 263 264 263 263 265 264 264 263 264 265 265 264 264 264 263 263 263 264 263 263 263 262 261 261 261 262 261 260 260 260 260 260 260
268 267 266 264 265 265 265 265 265 265 264 263 263 264 264 265 265 265 266 266 266 266 266 265 264 263 263 263 263 262 262 262 261 260 260 261 260 259 259 259 258 259 260
267 267 266 265 265 266 266 266 265 266 266 265 265 265 265 266 266 266 266 266 266 266 266 265 264 262 261 261 261 261 261 260 259 259 259 259 259 259 258 258 259 259 260
268 268 267 266 266 266 267 267 266 267 267 267 266 266 266 266 267 267 266 265 265 265 264 263 263 261 260 260 260 260 260 259 259 259 259 258 257 257 257 258 258 259 260
268 268 269 268 267 267 268 268 268 268 268 268 267 267 267 267 268 268 267 265 265 264 263 263 262 260 260 260 260 259 259 260 259 257 257 257 257 257 257 257 258 259 260
269 268 269 269 268 267 268 269 269 269 269 268 268 268 268 268 268 268 268 268 266 265 264 263 261 260 260 260 260 259 259 259 259 258 257 256 257 258 258 258 258 258 259
270 269 269 269 268 269 269 269 270 270 269 269 269 269 269 270 270 268 269 269 268 266 265 264 263 262 262 261 262 261 260 260 258 258 257 256 256 258 259 258 258 258 259
Height
5833 5833 5833 5834 5834 5834 5835 5835 5835 5836 5837 5837 5838 5838 5839 5840 5840 5841 5842 5842 5843 5843 5844 5845 5846 5846 5847 5848 5848 5849 5850 5850 5850 5851 5851 5852 5852 5853 5853 5853 5853 5854 5854
5831 5831 5831 5831 5832 5832 5832 5833 5833 5834 5834 5835 5835 5836 5837 5837 5838 5839 5840 5840 5841 5841 5842 5843 5844 5844 5845 5845 5846 5847 5847 5848 5849 5849 5849 5850 5850 5850 5851 5851 5851 5851 5852
5828 5828 5828 5829 5829 5829 5830 5830 5830 5831 5831 5832 5832 5833 5834 5835 5835 5836 5837 5838 5838 5839 5839 5840 5841 5842 5843 5843 5844 5844 5845 5846 5846 5847 5847 5848 5848 5848 5848 5849 5849 5849 5849
5824 5825 5825 5825 5826 5826 5826 5827 5827 5828 5828 5829 5829 5830 5831 5831 5832 5833 5834 5835 5835 5836 5837 5837 5838 5839 5840 5840 5841 5841 5842 5843 5844 5844 5844 5845 5845 5845 5846 5846 5846 5846 5846
5820 5821 5821 5822 5822 5822 5823 5823 5824 5824 5824 5825 5826 5826 5827 5828 5829 5829 5830 5831 5832 5832 5833 5834 5835 5836 5836 5837 5838 5838 5839 5840 5840 5841 5841 5842 5842 5842 5843 5843 5843 5843 5843
5816 5816 5817 5817 5818 5818 5819 5819 5819 5820 5820 5821 5821 5822 5823 5824 5825 5825 5826 5827 5828 5829 5829 5830 5831 5832 5832 5833 5834 5835 5835 5836 5837 5837 5838 5838 5838 5839 5839 5839 5840 5840 5840
5811 5812 5812 5812 5813 5813 5814 5814 5815 5815 5816 5816 5817 5818 5819 5819 5820 5821 5822 5822 5823 5824 5825 5826 5827 5827 5828 5829 5830 5830 5831 5832 5832 5833 5834 5834 5835 5835 5835 5835 5836 5836 5836
5806 5806 5807 5807 5808 5808 5808 5809 5809 5810 5811 5811 5812 5813 5813 5814 5815 5816 5817 5817 5818 5819 5820 5821 5822 5823 5823 5824 5825 5825 5826 5827 5828 5829 5829 5830 5830 5830 5831 5831 5831 5831 5832
5800 5800 5801 5801 5802 5802 5802 5803 5803 5804 5805 5805 5806 5807 5808 5809 5809 5810 5811 5812 5813 5814 5815 5816 5816 5817 5818 5818 5819 5820 5821 5822 5823 5823 5824 5825 5825 5826 5826 5826 5826 5827 5827
5793 5794 5794 5794 5795 5795 5796 5796 5797 5797 5798 5799 5799 5800 5801 5802 5803 5804 5805 5806 5807 5808 5809 5810 5810 5811 5812 5813 5814 5814 5815 5816 5817 5818 5818 5819 5820 5820 5821 5821 5821 5822 5822
5786 5787 5787 5787 5788 5788 5789 5789 5789 5790 5791 5791 5792 5793 5794 5795 5796 5797 5798 5799 5800 5801 5802 5803 5804 5805 5806 5807 5808 5808 5809 5810 5811 5811 5812 5813 5814 5814 5815 5815 5816 5816 5817
5779 5779 5779 5780 5780 5780 5781 5781 5781 5782 5783 5784 5784 5785 5786 5787 5788 5789 5790 5791 5793 5794 5795 5796 5797 5798 5799 5800 5801 5801 5802 5803 5804 5805 5806 5807 5807 5808 5809 5809 5810 5810 5811
5770 5771 5771 5771 5771 5772 5772 5772 5773 5773 5774 5775 5776 5777 5777 5778 5779 5781 5782 5783 5784 5786 5787 5788 5789 5790 5791 5792 5793 5794 5795 5796 5797 5798 5799 5800 5801 5801 5802 5802 5803 5804 5804
5761 5762 5762 5762 5762 5763 5763 5763 5763 5764 5765 5766 5766 5767 5768 5769 5771 5772 5773 5774 5775 5777 5778 5779 5780 5782 5783 5784 5785 5786 5787 5788 5789 5790 5792 5793 5793 5794 5795 5796 5796 5797 5797
5752 5752 5753 5753 5753 5753 5753 5754 5754 5755 5755 5756 5756 5758 5759 5760 5761 5762 5763 5765 5766 5767 5769 5770 5771 5773 5774 5775 5776 5777 5778 5779 5781 5782 5783 5784 5785 5786 5787 5788 5789 5789 5790
5742 5742 5742 5742 5743 5743 5744 5744 5745 5745 5746 5746 5746 5747 5748 5749 5751 5752 5753 5754 5756 5757 5759 5760 5762 5763 5764 5765 5767 5768 5769 5770 5771 5772 5774 5775 5776 5778 5779 5780 5781 5781 5782
5732 5732 5732 5733 5733 5733 5734 5734 5735 5735 5736 5736 5737 5737 5738 5739 5740 5741 5742 5744 5745 5747 5748 5750 5751 5752 5754 5755 5756 5758 5759 5760 5761 5763 5764 5765 5767 5768 5769 5771 5772 5772 5773
5722 5722 5722 5722 5723 5723 5723 5724 5724 5725 5725 5726 5726 5727 5727 5728 5729 5730 5731 5733 5734 5736 5737 5739 5740 5741 5743 5744 5745 5747 5748 5749 5751 5752 5753 5755 5756 5758 5759 5761 5762 5763 5764
5712 5711 5712 5712 5713 5713 5713 5714 5714 5715 5715 5715 5716 5716 5717 5717 5718 5719 5720 5721 5723 5724 5725 5727 5728 5729 5731 5732 5733 5735 5736 5738 5739 5741 5742 5744 5745 5747 5749 5750 5752 5753 5754
5702 5701 5702 5702 5703 5703 5703 5704 5704 5704 5704 5704 5705 5706 5706 5706 5707 5708 5708 5709 5710 5712 5713 5714 5716 5717 5718 5719 5721 5722 5724 5725 5726 5728 5730 5732 5734 5735 5737 5739 5741 5742 5744
5692 5692 5692 5692 5693 5693 5694 5694 5694 5694 5694 5694 5694 5694 5694 5695 5695 5696 5697 5697 5698 5699 5700 5701 5702 5704 5705 5706 5708 5710 5711 5712 5713 5715 5717 5719 5722 5724 5726 5728 5730 5731 5733
5682 5682 5682 5682 5683 5683 5683 5683 5683 5683 5683 5683 5683 5683 5683 5683 5683 5684 5684 5685 5686 5687 5687 5688 5689 5690 5692 5693 5694 5696 5699 5701 5701 5703 5705 5707 5710 5712 5714 5716 5718 5720 5722
5673 5673 5673 5673 5673 5673 5673 5673 5673 5673 5672 5673 5672 5672 5672 5672 5672 5672 5672 5673 5673 5674 5675 5675 5676 5677 5679 5680 5681 5684 5686 5688 5690 5692 5693 5695 5698 5700 5702 5704 5706 5709 5711
5663 5663 5663 5663 5663 5663 5663 5663 5663 5663 5662 5662 5662 5661 5661 5661 5661 5660 5661 5661 5661 5662 5662 5663 5664 5665 5667 5668 5670 5671 5674 5676 5678 5680 5682 5683 5686 5688 5690 5692 5695 5697 5699
5653 5653 5653 5653 5653 5653 5653 5652 5652 5652 5652 5651 5651 5651 5650 5650 5650 5649 5649 5649 5649 5649 5650 5651 5652 5653 5654 5656 5658 5660 5662 5664 5666 5668 5671 5673 5674 5676 5678 5680 5683 5685 5687
5643 5643 5643 5643 5643 5642 5642 5642 5641 5641 5641 5641 5640 5640 5639 5639 5638 5638 5638 5638 5637 5638 5638 5639 5640 5641 5643 5644 5646 5648 5650 5652 5654 5656 5659 5661 5663 5665 5666 5668 5671 5673 5676